Theta_e
332 332 332 333 334 335 334 334 333 333 333 332 331 330 330 330 330 331 330 330 327 327 327 328 328 328 328 328 328 328 330 332 333 332 331 330 329 326 323 323 324 325 326 329 329 329 329 329 328 327 327 326 325 325 326 327 325 322 321 320 317 312 308 305 303 303 305 307 310 313 314 313 312 313 314 316 317 317 317 318 318 318 318 318 318
333 333 333 334 334 334 334 334 333 333 333 333 330 329 330 331 331 331 332 331 328 327 328 328 329 329 329 329 328 328 328 331 333 332 331 330 329 326 324 323 323 325 325 327 328 329 329 329 328 328 327 326 326 325 325 325 324 324 324 323 322 319 314 309 305 303 304 306 308 310 309 308 309 310 311 313 314 314 315 316 317 317 318 318 317
334 334 333 334 333 333 333 333 333 332 332 331 330 330 330 331 331 331 331 331 330 329 329 329 329 329 329 329 329 328 328 330 331 332 331 330 329 326 324 323 324 325 325 325 327 330 329 328 328 328 328 326 326 325 325 325 323 325 327 327 326 324 319 314 309 305 303 302 303 304 304 306 308 307 308 311 310 310 310 314 317 316 317 317 317
335 334 334 334 334 334 333 333 333 332 332 331 331 332 332 331 331 331 331 331 331 330 330 330 329 329 329 329 329 329 328 329 330 331 331 331 330 327 325 325 324 324 325 325 326 329 329 328 328 328 327 326 326 326 325 325 323 324 327 328 327 325 322 317 313 309 305 302 301 301 302 304 306 306 305 306 307 309 309 312 316 317 317 317 316
335 334 334 334 333 333 333 333 333 332 332 332 332 333 332 332 332 332 331 330 331 331 330 330 329 328 328 329 329 329 329 328 329 329 331 331 330 328 326 326 326 324 325 325 325 328 329 329 328 327 327 326 326 327 326 325 323 324 327 328 328 326 323 320 316 314 310 306 303 302 304 304 304 304 303 303 304 308 309 309 312 316 317 317 317
333 334 334 334 333 332 332 333 333 332 332 332 332 332 333 332 332 331 331 330 330 330 330 330 329 328 328 328 329 329 329 328 328 329 330 331 331 329 328 327 327 325 325 325 325 327 329 329 329 328 328 326 325 326 326 325 324 322 326 328 327 324 324 323 319 317 315 311 307 304 305 305 304 302 300 301 302 303 304 305 307 312 316 317 316
333 334 334 334 334 333 333 333 333 333 333 332 332 332 332 332 331 331 330 330 329 329 329 329 328 327 327 328 329 329 329 328 328 328 329 331 331 330 330 329 328 326 325 325 325 326 328 329 329 328 328 327 325 325 325 326 325 323 324 326 326 323 324 325 322 319 318 316 312 309 306 305 305 303 300 300 300 299 300 302 303 307 312 315 315
333 333 333 333 333 333 333 333 333 333 333 332 332 332 332 331 330 330 330 331 329 328 329 328 327 327 327 328 328 328 328 327 327 327 328 330 331 330 330 330 329 328 326 326 326 326 327 327 328 328 328 328 326 325 325 325 325 324 323 324 325 324 323 325 325 322 321 319 316 314 312 309 306 304 302 300 299 299 299 299 301 303 306 310 314
332 333 333 333 333 333 333 332 333 332 332 332 331 331 331 331 331 330 330 330 329 328 328 327 326 327 327 328 328 328 327 327 327 327 328 329 331 331 330 330 330 329 328 327 326 326 327 327 327 328 328 328 328 327 327 327 327 325 324 324 324 324 322 323 325 324 323 320 318 317 316 315 312 307 304 302 299 300 299 298 299 300 301 305 311
332 332 333 333 332 332 332 332 332 332 332 331 331 331 331 331 331 330 331 330 328 328 327 326 326 327 327 328 328 328 328 328 327 327 327 328 329 330 330 330 330 330 329 328 327 327 327 327 327 327 327 328 328 329 328 329 329 328 327 326 324 324 324 322 323 325 325 323 321 321 320 319 318 313 308 304 300 299 299 299 299 299 299 301 305
331 331 331 332 332 332 332 331 331 332 332 331 332 331 332 332 331 330 331 329 327 327 327 326 326 327 328 328 328 328 328 328 328 328 327 328 328 329 329 330 330 330 330 329 328 328 328 327 328 327 327 327 327 328 328 328 329 330 330 329 326 325 326 325 322 322 324 326 325 323 323 322 320 317 313 307 302 300 299 299 299 298 299 299 301
329 330 330 331 331 331 331 331 331 331 331 331 331 331 332 332 331 331 330 328 327 327 327 327 328 328 328 328 328 329 329 328 328 328 328 328 327 328 328 329 330 330 330 330 329 329 329 328 328 328 327 327 327 327 328 327 328 330 330 330 329 327 327 327 326 322 321 324 326 325 324 323 322 320 315 311 308 303 300 300 299 299 298 298 298
327 328 328 329 330 330 330 330 330 330 330 330 330 330 330 331 331 331 329 327 328 328 327 328 328 328 327 327 327 327 328 328 328 328 328 328 328 328 328 328 329 330 330 330 329 329 329 329 329 328 328 328 328 328 328 328 327 328 329 330 330 330 329 329 329 327 323 321 323 326 326 324 324 322 318 315 314 310 306 303 301 300 299 297 298
327 326 326 327 328 329 329 329 329 329 329 329 330 330 329 330 331 330 329 327 327 328 327 327 327 327 327 326 327 327 326 326 326 328 328 328 328 329 328 328 328 329 330 329 329 329 328 328 329 329 328 329 329 329 329 329 329 328 328 329 328 329 331 330 330 330 327 321 319 323 326 325 324 324 322 320 318 315 313 310 307 304 302 300 298
326 325 325 326 327 328 328 328 329 329 328 328 330 330 330 330 330 330 329 327 327 327 327 327 326 327 326 326 328 328 327 327 326 328 328 328 328 328 328 328 328 328 329 329 328 329 328 327 328 328 328 328 328 328 329 329 329 329 329 329 329 329 330 331 331 330 330 326 320 319 322 325 325 323 323 323 321 319 318 316 313 311 308 306 302
324 324 325 326 326 327 327 327 328 328 327 328 329 331 331 330 330 329 328 327 327 326 326 327 327 326 326 326 325 326 329 328 327 328 328 328 327 327 328 328 328 329 328 328 328 328 329 328 328 328 328 328 328 328 329 329 328 329 329 329 329 329 329 329 330 330 331 330 327 321 319 321 323 321 321 322 321 321 321 320 319 317 315 313 309
322 323 323 325 325 325 326 326 326 327 327 327 327 329 330 329 329 329 328 327 326 325 325 325 326 326 326 326 326 329 331 328 327 329 328 329 328 326 328 328 328 328 327 326 327 326 326 326 325 327 327 327 328 328 328 328 328 328 327 328 328 328 328 327 327 329 330 331 330 327 323 322 322 321 320 320 320 320 320 321 322 322 321 319 317
321 322 322 323 324 324 325 324 324 325 326 326 326 326 328 329 329 329 328 328 326 326 325 325 326 326 326 327 327 329 330 327 327 328 326 327 329 328 328 329 328 327 326 325 326 325 325 325 325 326 327 327 327 327 327 326 327 327 327 327 327 327 328 328 327 328 329 330 331 330 328 327 325 324 322 322 321 321 321 320 320 321 322 322 321
319 321 322 322 322 324 324 324 323 324 324 325 326 326 327 327 328 328 328 328 328 327 326 325 327 327 327 327 326 327 327 327 328 328 326 325 325 325 324 325 324 324 323 324 324 325 326 328 328 327 327 327 327 327 327 326 326 326 326 326 326 327 328 328 327 327 327 328 330 330 331 330 329 328 327 325 324 324 323 322 321 321 321 322 322
318 320 322 321 321 322 324 323 323 323 323 324 324 325 326 327 327 327 327 327 328 328 326 326 327 326 326 327 327 327 326 326 325 326 327 325 323 321 317 316 318 319 321 322 323 325 326 327 328 328 327 327 327 327 327 328 327 326 325 325 326 327 327 327 328 328 328 328 328 329 330 330 330 330 329 328 327 326 325 324 324 324 323 322 322
318 320 321 320 320 321 323 323 322 322 322 322 322 323 324 325 326 327 327 327 327 327 327 326 326 325 325 325 326 325 325 326 325 323 324 326 326 322 316 313 314 315 317 319 321 323 324 326 326 327 327 327 326 327 327 327 326 324 323 324 327 327 327 328 328 327 327 328 328 328 329 329 329 330 330 330 330 329 328 326 326 325 325 324 323
319 320 320 320 320 321 322 322 322 321 321 320 321 322 323 324 325 325 325 325 324 324 324 324 325 325 324 324 324 321 321 322 321 321 321 321 323 321 316 313 312 311 310 312 314 317 320 322 324 325 326 326 326 327 327 327 326 324 322 323 327 327 327 327 327 327 327 327 327 327 328 328 327 328 329 329 329 329 329 328 328 327 327 326 325
317 318 318 317 317 318 319 320 320 320 319 319 319 320 322 322 321 321 321 321 320 319 320 320 322 324 325 325 324 321 320 319 319 320 318 317 319 318 314 313 312 311 310 308 308 310 313 315 317 318 320 321 323 325 325 325 325 322 321 322 324 324 325 325 325 326 327 327 326 326 327 328 327 328 328 328 329 329 329 329 329 329 328 328 327
315 315 314 314 314 313 314 317 318 318 318 318 317 318 321 320 318 318 317 317 317 317 318 318 320 322 323 322 321 319 318 318 317 318 316 315 317 315 313 313 313 311 310 309 308 308 309 310 310 310 311 312 314 315 316 316 316 316 316 317 316 317 319 320 323 324 325 325 326 326 326 327 326 327 328 329 329 329 330 329 329 329 329 329 329
315 314 314 314 313 311 311 312 314 315 315 315 317 318 319 319 317 316 316 315 315 315 316 315 316 317 316 315 314 314 312 313 313 314 315 314 315 314 312 312 313 312 310 310 309 308 308 308 308 308 308 308 309 310 310 310 310 311 312 313 312 313 313 314 317 319 320 321 322 323 324 324 325 325 325 326 327 327 328 328 328 328 327 327 328
314 314 314 314 313 312 311 311 311 312 312 313 315 317 317 317 317 315 315 315 315 315 314 313 313 313 313 312 311 311 310 309 310 309 310 311 312 314 312 310 311 310 309 309 309 309 308 307 307 307 307 306 307 308 308 309 309 309 310 311 311 312 311 312 313 314 314 315 316 317 318 320 321 322 322 322 321 321 321 322 322 323 323 323 325
313 314 314 314 313 313 312 312 312 311 311 312 313 314 316 316 316 314 314 313 313 313 311 311 311 311 311 311 310 309 309 309 308 308 308 307 308 311 311 312 311 308 307 309 309 309 308 307 306 305 304 304 304 305 306 307 307 308 309 310 310 310 311 311 311 311 311 312 312 313 312 313 314 315 316 316 316 316 316 316 317 318 318 319 320
311 313 313 313 313 314 313 312 313 312 310 310 309 310 311 312 313 312 312 313 312 311 311 309 309 308 308 306 306 309 309 308 308 308 308 308 307 308 309 311 312 310 311 311 309 309 308 306 305 304 303 302 302 303 304 305 305 306 306 307 308 308 308 309 309 310 310 310 310 310 310 310 310 311 311 312 312 313 313 314 314 315 316 316 317
310 311 312 313 312 313 313 312 314 314 312 309 307 307 308 308 310 310 311 312 311 310 310 307 306 306 306 305 306 308 309 308 308 308 308 308 308 307 307 307 308 313 317 314 310 308 308 306 305 304 302 300 300 301 302 304 304 305 305 306 306 307 307 307 308 308 308 308 308 309 309 309 309 309 309 309 310 310 311 311 312 312 313 314 315
309 309 309 310 311 311 312 313 314 315 314 311 308 307 307 306 308 310 311 311 311 310 309 306 305 305 306 306 308 309 309 309 309 309 309 309 309 308 308 307 306 310 313 313 310 308 307 305 304 302 300 298 298 299 301 303 304 304 305 305 305 305 306 306 307 307 307 307 307 307 308 308 308 308 308 309 309 309 309 309 309 310 310 311 312
309 308 308 308 309 308 309 312 313 314 315 313 310 309 308 307 307 309 311 312 311 311 310 307 306 306 306 307 308 308 309 309 309 309 309 309 309 309 309 308 307 306 307 309 310 308 305 304 303 300 298 297 296 296 297 299 301 302 303 304 305 305 305 306 306 306 306 306 307 307 307 307 307 307 308 308 308 308 309 309 309 309 309 309 310
309 309 308 308 308 307 307 308 310 313 314 314 312 311 310 310 309 308 310 311 311 310 310 310 308 307 307 309 309 309 309 308 308 309 309 309 309 309 308 307 306 306 305 306 308 307 305 304 301 298 296 295 296 296 296 296 297 298 299 301 302 304 305 305 304 305 305 305 306 306 306 306 306 307 307 307 307 308 308 308 308 309 309 309 309
314 311 309 309 309 309 309 308 308 309 312 313 312 312 311 312 311 310 310 309 309 308 309 310 309 308 307 307 308 309 309 308 308 308 308 308 308 307 307 306 305 304 303 303 305 306 305 302 299 296 295 295 296 296 296 296 296 296 296 297 298 300 301 302 302 303 303 304 304 304 305 305 306 306 306 306 306 306 307 307 307 308 308 308 308
318 316 313 311 311 311 312 311 309 308 309 310 311 312 312 312 312 311 310 309 308 307 307 308 309 309 307 307 306 306 306 308 308 308 308 308 308 307 306 306 304 301 300 300 302 302 301 300 297 295 295 295 296 296 296 296 296 296 296 296 297 297 297 298 298 299 300 300 301 301 302 303 303 304 305 305 305 305 305 306 306 306 307 308 308
319 319 317 315 314 313 314 314 313 311 310 310 312 312 312 311 312 312 311 310 310 308 307 307 307 308 308 308 307 306 306 306 307 307 308 307 307 307 307 306 303 299 298 298 299 298 297 297 296 295 296 296 296 296 296 296 296 296 296 296 296 296 296 296 296 296 297 297 298 298 298 299 299 301 302 302 303 304 304 305 305 305 306 306 307
319 319 319 317 316 315 315 315 316 315 313 312 312 313 313 312 312 312 312 312 311 310 310 309 307 307 308 308 308 309 308 306 306 306 307 307 307 307 306 305 302 300 299 298 298 297 296 296 296 295 296 296 297 297 297 297 296 296 296 296 296 296 296 296 296 296 296 296 296 297 297 297 297 297 298 299 300 301 302 302 303 304 304 304 305
319 319 319 319 317 316 316 316 316 316 316 315 314 314 314 313 313 313 312 313 313 312 312 311 310 309 309 308 308 309 309 308 306 305 306 307 307 306 305 304 301 301 301 300 299 298 297 297 296 296 297 297 298 297 297 297 297 297 297 297 296 296 296 296 295 295 296 296 296 296 296 296 296 296 296 297 297 297 298 299 300 300 302 302 303
319 319 319 319 318 317 317 317 317 317 317 317 316 316 315 314 314 313 313 313 313 313 313 313 312 311 311 310 309 309 309 308 307 307 306 306 306 306 305 303 301 301 301 300 299 299 299 298 297 297 298 298 298 298 298 297 297 297 297 297 297 296 296 296 295 295 296 296 296 296 296 296 296 295 295 296 296 296 297 297 297 298 298 299 300
319 319 319 318 318 318 318 318 317 318 318 317 317 316 316 315 315 314 314 314 315 314 314 313 313 313 312 312 312 311 310 309 308 308 307 306 305 305 304 303 301 301 301 301 299 299 299 299 298 298 298 298 298 298 298 297 297 297 297 297 297 296 296 295 295 295 295 295 295 295 295 295 295 295 295 295 295 295 296 296 296 297 297 297 297
319 319 319 319 319 318 318 317 317 317 318 318 317 317 316 316 316 315 315 316 317 316 315 314 314 314 313 313 313 312 311 311 310 309 308 308 306 305 305 303 302 302 301 300 300 300 300 299 299 298 299 299 299 298 298 297 297 297 297 296 296 296 296 295 295 295 295 295 295 295 294 294 295 295 295 295 295 295 295 295 296 296 296 297 297
319 319 318 318 319 318 317 317 317 318 318 318 318 318 317 317 317 317 316 317 318 318 317 317 316 315 314 314 314 313 312 312 312 312 310 309 308 307 305 304 303 302 301 301 300 300 300 300 300 300 300 300 299 298 298 297 297 297 296 296 296 296 296 295 295 295 295 295 294 294 294 293 294 294 294 294 294 294 294 294 295 295 296 297 297
319 318 318 318 318 318 318 317 317 317 318 318 318 318 319 318 318 318 318 318 318 318 318 317 317 316 316 316 316 316 314 312 311 312 311 310 309 307 306 305 303 303 302 301 300 300 300 300 300 300 301 301 299 298 297 297 297 296 296 296 295 295 295 295 295 294 294 294 293 293 293 293 293 293 293 293 293 293 293 294 294 295 296 297 297
318 317 317 317 318 317 317 317 317 317 318 319 319 319 319 319 319 318 319 319 319 319 318 318 317 317 317 316 316 316 315 314 313 311 311 311 310 308 307 304 303 303 302 301 300 300 300 300 300 300 300 300 299 298 297 297 297 296 296 295 295 295 294 294 294 294 294 293 291 291 293 293 292 292 293 293 293 293 293 294 295 295 295 296 297
318 318 318 318 318 318 318 318 317 318 319 319 320 320 320 320 320 319 320 320 320 319 319 318 318 318 317 317 317 316 315 315 314 312 311 310 310 309 307 304 303 304 303 301 301 301 300 300 300 299 299 299 299 298 298 297 297 296 296 295 295 293 293 292 292 293 292 292 291 291 292 293 292 292 292 293 293 293 294 294 294 294 295 295 296
319 318 317 317 316 315 315 315 314 314 315 316 317 318 319 319 319 318 318 318 319 319 319 319 319 318 318 318 318 317 316 314 314 313 311 310 309 307 305 304 304 303 302 301 301 301 300 300 300 299 298 298 298 297 297 297 296 296 296 295 294 293 292 291 291 291 292 292 291 291 291 292 292 292 292 293 293 293 293 294 294 294 294 294 295
314 313 312 311 311 310 310 309 310 310 310 311 312 313 314 315 316 316 316 317 318 319 319 319 319 319 318 318 318 317 316 314 313 312 311 309 308 305 304 304 303 302 301 301 301 300 300 300 299 298 298 298 297 297 297 296 295 295 294 293 293 292 291 291 291 291 292 291 291 291 291 292 292 292 292 292 292 292 293 293 294 294 294 295 295
309 309 308 308 307 307 307 307 307 307 308 309 309 310 310 311 312 313 314 316 318 318 318 318 318 318 318 318 317 317 316 314 312 311 310 309 307 305 304 303 302 302 302 301 301 300 299 299 298 298 297 297 296 296 295 294 293 293 292 292 292 291 291 291 291 291 291 291 291 291 291 292 292 291 291 291 292 292 293 293 293 294 295 295 295
307 307 306 305 305 304 304 304 305 305 305 306 306 308 308 309 309 310 312 315 317 318 318 317 317 316 316 316 316 316 315 313 311 309 308 307 306 304 303 302 302 302 302 300 300 299 299 298 297 297 296 296 295 294 293 293 292 292 291 291 291 291 291 291 291 291 291 291 291 291 291 291 291 291 291 291 292 292 292 292 293 294 295 295 295
306 306 305 305 304 303 303 303 303 303 302 303 304 305 307 308 309 309 311 315 317 317 317 316 315 314 314 314 313 313 311 310 309 307 305 305 305 303 303 302 302 302 300 299 299 298 297 297 296 295 295 294 294 293 292 292 292 292 291 291 291 291 291 291 291 291 291 291 291 291 291 291 291 291 291 291 292 292 292 292 293 295 295 295 295
306 306 305 305 304 304 303 304 304 304 303 302 303 305 306 308 310 311 313 315 316 316 315 314 313 312 313 312 311 309 308 308 307 305 303 303 303 303 303 302 301 300 299 298 298 297 296 295 294 294 294 293 293 292 292 292 292 291 291 291 291 291 291 291 291 290 290 290 291 291 291 291 290 290 291 292 292 292 292 292 294 294 294 294 294
306 305 305 306 305 305 305 305 305 304 303 302 304 306 308 309 311 313 314 315 315 314 313 312 311 311 311 310 308 307 306 306 304 303 302 302 303 302 302 301 300 298 298 297 296 295 295 294 294 293 293 292 292 292 292 292 291 291 291 291 291 290 291 290 290 290 290 290 290 290 290 290 290 290 291 291 291 291 292 292 293 293 292 293 292
Wind_Speed
6 6 6 7 7 7 8 7 5 5 4 4 4 4 4 3 2 2 3 4 4 4 4 3 1 0 1 3 4 3 3 4 5 5 7 6 6 5 5 4 4 4 4 5 6 6 6 6 5 5 5 6 6 6 6 4 3 2 3 4 4 4 4 3 3 4 4 5 6 6 7 7 8 8 9 9 9 9 10 11 10 11 11 11 11
6 6 6 6 7 6 6 6 5 6 6 4 4 4 4 3 3 2 2 3 3 3 3 3 1 1 1 3 4 3 3 4 4 5 6 6 7 6 5 5 4 4 4 4 5 5 6 6 6 5 5 5 5 5 5 4 4 4 2 1 3 3 3 3 2 3 3 4 4 5 5 6 6 7 8 8 8 8 9 10 10 10 11 11 10
6 5 5 6 6 5 5 5 5 6 7 6 5 5 5 4 3 3 3 2 3 3 3 3 2 2 2 3 4 2 3 4 4 4 6 7 7 6 5 5 4 4 4 3 4 6 5 6 6 6 5 5 5 5 5 5 4 4 4 2 1 2 2 2 2 2 2 3 3 3 4 4 5 6 6 7 7 8 8 9 9 9 10 10 10
5 6 7 7 6 5 5 5 4 5 6 6 6 5 5 6 5 4 4 3 3 3 3 4 4 4 4 4 4 3 2 4 5 5 7 7 7 7 6 5 4 4 4 3 4 6 5 4 5 6 6 6 5 5 5 5 4 5 4 5 2 1 1 1 1 2 2 2 2 2 3 3 3 4 5 5 6 7 7 8 8 8 9 9 10
6 8 8 7 5 4 4 4 4 3 4 4 5 5 6 7 6 6 6 4 4 4 4 4 5 5 5 5 4 3 3 4 5 6 8 8 8 8 6 5 5 5 5 4 5 6 5 3 4 5 6 6 6 6 5 4 5 5 4 5 3 1 2 1 0 1 2 1 1 1 2 2 3 3 3 4 5 6 6 7 7 8 8 8 9
8 9 7 5 4 4 4 4 4 4 4 5 6 7 8 8 7 8 8 7 6 5 5 5 6 6 5 5 5 5 5 5 5 6 7 8 9 8 8 7 6 5 6 5 6 6 7 5 4 4 4 6 6 7 6 5 5 6 4 5 5 3 2 2 1 1 1 1 1 1 1 1 1 2 2 2 3 4 5 6 6 7 7 8 8
7 7 5 4 4 4 5 6 7 7 7 7 8 8 9 9 9 9 9 8 6 6 6 6 6 5 4 5 5 5 5 6 6 6 7 8 9 10 9 8 7 6 6 6 6 7 7 7 6 5 3 4 5 6 6 6 6 6 5 5 5 4 4 3 2 2 2 2 1 1 1 1 0 1 1 1 2 3 4 5 5 6 6 7 8
6 5 5 6 5 4 4 6 8 9 10 9 9 9 9 10 10 10 9 8 7 6 6 5 4 3 3 4 6 6 6 6 7 7 7 9 10 11 10 9 8 7 7 6 6 6 7 7 7 6 5 4 3 5 6 5 6 6 7 7 5 4 5 5 4 3 3 3 3 2 2 2 2 2 0 1 1 2 3 4 4 4 5 6 7
5 4 4 6 6 5 5 6 8 9 10 10 10 9 9 10 9 9 9 9 8 6 6 4 3 4 5 6 7 7 7 6 5 6 7 9 11 12 12 11 10 9 9 8 7 7 7 7 6 6 6 5 4 3 4 4 4 4 5 7 7 6 5 6 6 5 3 3 3 3 3 3 3 3 2 1 1 2 2 3 4 4 4 5 6
3 2 3 5 6 6 6 6 7 8 9 10 10 9 8 9 10 9 8 8 7 7 7 5 4 6 8 8 8 7 7 6 5 5 6 8 10 12 13 13 12 11 11 10 9 8 7 7 7 7 6 6 6 5 4 4 5 5 5 5 5 7 7 6 6 7 6 5 4 3 3 4 4 3 3 2 2 1 2 3 3 3 4 4 5
2 1 2 3 3 5 6 6 7 8 8 9 9 9 9 9 10 10 7 6 6 7 8 8 8 9 10 9 8 7 6 5 5 5 5 7 9 11 13 14 13 13 13 12 11 10 9 9 8 8 7 7 7 7 6 6 7 7 7 6 4 5 8 7 6 7 8 7 6 5 3 3 3 4 4 3 3 2 2 2 3 3 3 4 4
4 3 2 2 3 4 5 6 8 8 9 9 9 11 11 10 10 11 9 6 8 10 10 12 12 10 9 9 8 7 6 5 4 4 4 4 5 8 10 11 13 13 13 14 13 12 11 12 11 10 9 8 8 8 8 7 8 8 9 8 6 5 8 8 6 5 7 9 8 7 6 3 2 3 4 4 3 3 3 3 2 2 3 3 4
6 5 4 3 4 5 6 7 7 9 9 8 7 8 9 8 9 10 8 7 10 12 13 14 14 10 6 6 5 5 6 5 3 3 3 3 3 4 6 7 9 10 11 13 14 14 13 14 14 13 13 12 12 11 10 9 9 9 9 9 8 8 8 9 8 6 5 8 10 10 9 7 5 4 4 4 4 4 3 3 3 3 2 2 3
6 6 5 4 4 5 5 6 7 8 8 5 4 4 4 5 5 8 9 10 11 13 14 12 9 8 6 4 2 2 4 4 5 5 5 5 5 4 5 6 5 6 7 8 10 12 12 13 14 14 16 17 16 16 15 13 12 11 10 10 8 8 9 9 10 8 6 6 9 11 11 10 8 6 5 5 5 5 5 4 4 3 3 2 2
6 6 5 4 4 3 4 5 5 6 5 4 3 4 4 4 5 8 8 9 11 11 12 9 6 7 5 3 1 1 1 2 4 6 5 6 6 7 7 6 5 5 5 5 7 8 9 11 11 12 15 16 17 18 19 17 16 15 13 12 11 11 11 10 9 10 9 7 7 10 12 11 9 8 7 6 6 6 6 5 5 4 4 3 3
4 6 6 5 5 3 3 3 3 3 4 5 5 5 5 6 8 9 6 7 9 7 9 10 9 7 4 2 0 1 0 2 2 4 5 6 6 6 5 4 5 3 3 5 7 7 6 7 8 10 12 13 15 17 18 18 17 15 15 14 14 14 14 13 11 11 12 11 10 10 10 10 9 8 8 8 8 7 7 7 6 6 6 5 5
3 4 5 5 5 4 3 3 3 4 4 5 6 6 6 6 7 8 5 5 5 7 8 9 9 8 6 3 1 0 1 2 2 2 2 4 5 4 3 3 4 4 3 6 6 5 6 7 6 8 10 10 12 13 13 16 15 11 11 12 12 13 15 15 15 15 15 15 14 13 11 10 9 8 7 7 8 9 9 9 9 8 7 7 7
3 3 3 4 5 4 3 4 4 5 4 3 4 5 6 7 7 7 5 5 5 9 12 9 6 7 7 6 4 3 3 4 2 1 1 1 2 2 2 0 2 4 5 5 5 4 5 6 5 6 8 8 9 10 12 14 12 9 9 11 12 13 13 13 12 15 17 18 17 15 13 12 10 9 9 8 9 10 10 11 11 11 10 10 10
3 3 4 4 4 4 4 5 5 6 6 5 4 3 4 6 6 6 5 4 4 6 11 11 8 6 6 6 5 4 6 6 3 2 2 2 3 5 6 5 3 2 4 5 4 3 4 4 3 4 6 6 6 8 11 11 11 10 10 11 13 13 12 9 9 12 16 20 20 17 14 13 14 13 12 12 12 12 12 12 13 12 12 12 12
3 4 5 4 4 3 4 4 6 7 7 7 7 6 5 4 5 5 5 5 3 3 6 9 9 7 6 6 4 5 6 6 4 3 4 2 2 6 11 12 11 9 5 3 2 3 3 3 4 4 4 5 5 7 8 8 8 7 6 8 9 9 9 8 9 10 11 14 18 18 16 13 14 15 15 16 16 16 16 15 14 13 13 13 14
3 4 5 5 4 4 4 5 5 6 5 6 6 6 6 5 5 4 4 4 4 3 3 6 7 8 7 5 6 7 6 6 6 6 5 3 2 2 7 13 17 18 17 13 10 6 4 2 2 3 4 5 5 5 5 5 6 6 7 9 8 7 7 7 8 8 7 7 9 13 16 16 16 14 15 17 17 16 17 16 16 16 16 16 15
6 6 6 6 5 5 5 5 5 4 4 5 6 6 6 6 7 6 6 6 6 6 5 5 5 6 7 8 7 7 6 5 6 8 6 5 5 3 4 10 13 17 23 24 21 19 16 13 10 9 7 5 3 4 5 4 4 5 6 8 8 7 6 6 6 6 6 5 4 5 10 15 16 15 16 18 17 16 16 15 15 17 17 17 18
7 7 7 6 5 5 5 5 5 4 5 5 5 5 6 8 9 9 9 10 10 9 8 7 6 6 7 8 7 5 4 3 4 6 5 6 6 3 4 10 11 13 20 25 26 25 23 22 21 19 18 16 13 12 11 10 9 8 6 6 8 8 7 7 8 9 8 7 7 5 2 6 10 12 15 16 15 15 18 17 16 17 17 17 18
8 7 6 5 3 2 4 4 4 4 4 5 6 6 7 8 9 10 11 11 11 11 12 12 9 9 10 9 7 7 7 7 6 7 8 11 11 6 5 7 8 9 12 19 26 27 26 24 24 23 22 21 20 18 16 15 14 12 10 10 11 11 10 9 9 9 10 11 11 8 6 4 3 5 8 9 10 13 16 16 16 17 18 17 18
7 6 5 4 2 2 3 4 4 4 4 5 7 8 8 8 9 9 10 10 10 10 12 13 12 13 14 14 13 12 11 10 8 8 8 11 12 8 5 5 5 7 8 10 16 22 25 24 21 21 20 19 18 17 16 15 15 13 12 11 12 11 11 10 9 9 9 9 9 8 7 6 5 4 4 3 4 7 9 10 11 12 13 13 16
6 6 5 4 3 3 4 4 4 4 5 6 7 8 8 8 8 8 8 8 8 9 10 11 12 13 13 14 14 14 13 12 10 11 9 8 10 9 7 6 6 7 8 10 12 14 18 22 21 19 18 17 15 14 14 13 13 12 10 9 9 9 9 8 8 8 8 8 8 8 7 6 5 5 5 4 3 4 5 5 6 7 8 9 11
5 6 4 3 3 3 3 3 4 4 4 5 6 7 7 7 7 7 8 8 7 9 9 10 11 11 11 12 13 14 14 13 13 13 12 11 9 10 9 6 6 5 5 10 16 15 13 16 20 19 18 17 16 14 12 11 11 10 8 8 8 8 8 8 7 7 7 7 7 7 7 6 6 6 6 6 6 6 7 7 7 8 8 8 9
4 5 4 3 2 1 1 1 2 3 3 3 4 5 6 6 7 7 8 7 7 8 9 9 10 10 10 10 12 14 13 13 13 13 13 13 12 9 8 7 6 4 2 5 9 12 13 14 17 19 18 17 16 15 12 11 11 10 9 10 9 9 9 8 7 7 7 7 7 6 6 6 5 5 5 6 6 7 8 9 10 10 10 10 10
3 5 4 3 3 2 2 2 1 2 2 2 3 4 5 5 6 6 7 7 7 8 8 8 10 10 10 11 12 14 13 12 13 12 12 12 13 12 9 7 7 5 2 2 2 6 11 14 15 17 17 16 15 14 13 13 13 11 11 11 11 11 10 8 8 8 7 7 7 6 5 5 5 5 5 5 5 5 6 6 7 8 9 10 11
4 4 4 4 4 3 4 3 3 2 2 2 2 3 3 4 5 6 6 6 6 7 7 8 9 9 11 12 12 13 12 12 13 12 11 12 12 13 13 12 10 8 6 3 2 4 9 12 14 15 15 15 15 14 13 13 12 11 11 11 11 11 10 9 9 9 8 8 8 7 7 6 6 6 6 5 5 5 5 5 5 6 7 8 8
4 5 5 5 4 4 5 4 4 3 2 3 2 0 2 3 4 5 5 5 5 7 7 7 8 9 10 11 12 11 11 10 11 11 10 11 11 11 13 13 14 13 11 8 3 3 7 10 12 13 13 14 14 14 13 12 12 11 10 10 10 10 9 9 10 10 9 9 9 9 9 8 8 7 7 6 6 6 6 5 6 6 7 7 8
5 5 5 6 5 4 5 5 6 5 4 4 3 2 1 0 2 4 4 4 3 4 6 6 7 7 8 9 9 9 8 8 9 9 9 9 9 10 11 12 13 13 12 12 7 5 7 8 10 12 13 13 13 15 15 14 13 11 10 9 8 8 8 9 10 10 9 9 9 9 9 9 8 8 8 7 7 7 6 6 6 6 7 7 8
6 5 5 6 5 5 5 6 7 7 6 6 5 5 4 3 1 1 2 2 2 2 3 4 5 6 6 7 7 7 6 5 6 7 8 8 8 9 9 10 12 12 11 12 10 6 5 6 8 11 13 13 14 16 17 16 15 14 12 11 9 9 9 9 10 10 9 9 9 8 8 8 8 8 8 7 7 7 7 7 7 7 7 7 7
9 8 7 7 7 7 6 6 7 8 9 8 8 7 6 5 4 2 1 1 2 2 2 3 4 4 4 5 5 5 4 4 5 5 5 6 5 6 8 8 10 11 11 10 9 7 6 5 8 11 13 14 15 17 18 18 17 16 15 14 13 12 11 11 11 11 10 10 10 10 10 9 9 9 9 9 8 8 8 8 8 7 7 7 7
13 12 11 10 9 9 8 7 9 10 10 10 10 10 9 8 6 5 4 4 4 3 3 3 4 4 3 3 3 4 3 3 4 4 4 4 3 5 6 7 8 9 10 9 8 8 7 6 8 12 13 14 16 17 17 17 17 16 16 16 15 14 14 14 14 13 12 11 10 10 10 11 11 11 12 12 12 11 11 10 10 9 9 9 9
16 16 14 13 13 13 11 11 12 12 12 11 11 12 12 12 10 9 8 7 6 6 5 5 5 5 4 4 3 3 3 3 4 4 4 4 3 4 5 5 6 7 8 8 8 8 8 7 8 11 12 13 15 16 17 17 17 17 17 18 17 17 18 18 18 18 16 12 10 10 10 10 11 12 13 14 14 14 14 14 13 13 12 12 12
15 15 14 15 15 15 13 13 14 14 13 13 13 13 15 17 16 13 11 11 10 10 9 8 7 7 6 5 5 5 4 4 4 4 4 3 3 3 3 3 4 5 5 6 7 7 7 8 8 8 10 12 14 16 17 18 18 18 19 20 20 21 22 21 21 21 18 14 12 11 11 12 14 14 14 14 14 14 15 15 15 15 15 15 15
13 12 13 15 16 15 15 14 14 15 16 16 15 14 15 19 21 20 16 14 14 14 13 11 11 10 9 8 7 7 7 6 5 5 4 4 3 2 2 2 2 2 3 4 5 5 6 7 7 7 9 11 14 16 17 19 19 20 22 23 23 24 26 25 26 23 17 15 15 14 16 19 20 19 17 16 15 14 14 14 15 15 15 16 16
16 16 18 20 19 17 16 16 16 18 20 19 17 15 16 18 22 24 22 18 16 17 16 14 13 13 13 11 11 11 10 9 8 8 7 6 5 4 2 1 1 1 2 3 3 4 5 6 6 8 9 11 14 15 17 18 19 20 24 26 27 28 29 29 30 25 18 16 17 18 22 25 25 23 21 19 17 16 15 15 14 14 14 15 15
17 18 18 17 16 15 15 14 15 19 21 22 21 19 19 20 22 24 24 22 20 20 20 18 16 16 15 15 14 14 14 12 11 10 10 9 7 6 4 3 2 1 1 2 3 4 5 5 6 8 9 11 13 15 17 18 19 20 22 23 26 29 30 31 29 23 19 20 21 24 28 29 28 26 24 21 19 18 17 16 15 14 13 13 14
14 12 10 12 13 14 15 14 13 16 20 22 21 19 18 18 18 21 23 21 20 21 21 21 20 19 18 17 16 17 18 16 14 13 12 12 10 8 6 5 5 3 1 2 3 4 5 5 6 8 10 12 14 15 16 17 17 17 18 19 22 25 29 32 28 20 18 21 25 30 33 31 30 28 25 23 21 20 18 17 16 14 12 12 13
14 11 10 15 16 15 15 14 14 17 19 18 17 16 15 14 15 17 17 16 16 18 19 20 20 20 20 18 18 19 20 19 18 17 15 14 13 10 8 7 5 3 2 2 3 4 5 6 6 8 10 12 13 14 15 15 15 15 17 19 21 24 27 30 28 23 20 22 28 35 35 30 28 27 25 24 22 20 18 17 15 12 11 11 12
14 12 11 13 13 12 12 13 14 17 16 14 13 12 12 12 14 14 14 13 14 15 16 17 18 19 19 19 20 21 22 22 21 20 18 16 15 12 10 8 5 4 3 2 2 3 5 6 7 7 9 10 12 13 14 15 16 17 18 19 20 22 23 21 20 23 25 26 29 32 33 30 25 23 25 24 21 18 16 14 13 11 10 11 12
8 7 6 7 7 7 8 8 9 10 9 8 8 8 8 9 10 10 10 11 12 12 14 14 15 16 17 17 18 21 23 23 23 23 21 19 17 14 12 10 7 6 5 4 3 3 5 6 8 8 8 10 11 12 13 15 16 18 20 21 20 20 20 17 16 22 27 28 26 27 29 28 23 21 23 22 18 16 14 13 13 12 11 11 11
6 5 4 4 4 4 3 2 1 1 2 3 3 4 6 6 7 7 7 8 9 10 10 11 12 13 14 16 17 19 20 21 22 23 22 20 18 16 14 12 9 8 6 5 4 5 6 7 8 8 8 9 10 12 13 15 17 19 21 23 23 21 20 19 19 23 26 25 22 23 27 28 24 20 22 21 18 17 16 14 14 13 12 11 10
8 8 8 8 7 6 5 5 4 4 4 3 3 3 4 5 6 7 7 8 8 8 8 9 10 12 13 15 16 17 18 19 20 21 21 21 20 17 15 13 10 8 6 5 5 7 7 8 8 8 8 9 10 11 13 14 16 18 19 21 22 21 20 20 20 23 23 21 19 18 21 25 24 22 22 23 21 20 18 16 15 13 10 9 9
11 11 10 9 7 6 5 4 4 4 4 4 5 5 5 5 6 6 7 8 8 8 8 9 10 12 14 15 15 16 16 17 18 18 20 21 20 18 15 13 10 8 7 7 7 7 7 8 8 8 8 9 10 11 13 14 15 15 15 16 17 17 18 19 20 22 21 18 18 16 14 18 22 23 24 25 24 22 21 19 16 12 9 7 8
10 9 8 6 5 4 3 3 3 4 5 5 6 6 6 7 7 7 6 7 8 8 8 9 10 11 13 13 13 13 13 14 15 16 19 21 20 18 15 13 10 8 7 7 6 6 7 7 8 8 9 10 11 12 13 13 13 13 13 14 15 16 16 18 21 23 21 19 20 18 14 15 19 21 24 27 25 23 23 20 15 10 7 5 7
7 6 5 4 3 3 3 4 5 7 8 8 7 7 7 7 7 7 6 6 7 8 8 8 9 10 11 11 9 9 9 11 12 15 18 20 18 16 14 11 8 8 7 6 6 6 7 8 8 9 10 11 12 13 12 12 12 13 13 14 15 16 15 15 16 18 21 23 21 16 13 16 18 21 23 25 23 22 22 19 11 7 5 6 10
7 5 4 2 1 1 2 4 7 10 12 11 9 8 8 8 7 6 6 6 6 7 7 7 8 8 9 8 6 5 6 8 10 14 17 17 15 13 11 9 8 7 6 6 6 7 8 8 9 10 11 12 12 12 11 11 12 12 13 15 15 16 16 15 14 17 21 20 15 12 13 18 20 21 21 21 21 19 17 12 7 7 11 13 17
5 4 2 2 2 1 2 4 6 9 11 12 10 7 7 7 7 5 5 4 5 6 6 6 6 6 6 5 3 2 4 6 9 12 13 12 11 9 8 7 6 5 5 6 7 8 9 10 11 11 11 11 12 12 12 12 12 12 14 15 16 17 18 18 17 16 13 9 9 13 18 19 19 18 17 17 16 13 10 8 11 15 17 19 20
Wind_Direction
227 229 236 240 244 239 228 217 194 182 198 217 222 218 228 230 236 256 262 257 245 220 206 198 199 191 154 152 157 144 149 178 181 189 196 204 226 241 249 248 234 232 216 197 204 200 194 199 192 183 178 166 157 154 156 167 183 155 86 57 56 51 48 59 75 79 83 90 93 95 96 98 100 101 104 104 102 100 103 103 102 101 100 100 98
234 233 239 246 250 244 237 229 204 191 194 208 219 220 226 230 243 273 275 250 229 216 219 218 222 254 216 167 159 137 136 181 193 199 201 210 228 237 244 248 243 240 234 207 197 203 200 203 207 197 193 183 172 170 164 168 177 171 177 17 32 30 29 33 49 73 83 88 90 95 97 98 101 104 104 104 104 104 110 111 105 105 103 99 98
230 230 241 250 249 241 240 240 222 208 202 200 203 207 216 227 240 260 265 241 219 220 233 241 246 268 252 198 178 152 138 175 198 208 205 215 229 235 237 242 248 245 248 240 194 201 210 206 211 206 204 202 188 187 177 180 186 171 196 232 354 3 359 15 29 47 67 84 86 96 98 98 101 105 107 106 107 108 112 112 105 104 104 101 100
220 227 239 243 241 239 243 245 232 215 206 200 198 203 218 235 246 265 283 291 281 270 258 261 265 271 261 227 201 197 176 180 202 216 211 219 231 233 233 236 246 245 249 259 210 205 216 206 210 210 210 210 200 201 193 193 201 180 201 224 224 339 314 333 25 41 42 69 79 98 108 109 110 106 110 112 112 112 114 114 109 108 108 106 105
216 223 230 234 235 230 235 240 234 225 212 204 210 222 234 244 258 275 274 248 254 266 255 261 274 275 263 240 224 234 243 214 212 223 223 228 234 236 235 233 239 245 246 257 237 219 226 221 215 214 212 214 203 204 210 208 199 180 197 225 219 292 296 269 297 55 39 46 61 82 126 126 126 116 112 119 119 117 120 124 119 116 114 113 110
215 220 222 230 239 223 213 217 220 233 237 228 231 238 243 250 259 267 254 225 224 238 236 253 276 276 257 241 240 251 251 233 228 233 235 237 240 240 240 237 235 241 244 250 245 230 232 239 244 227 213 216 205 201 211 210 201 182 185 220 220 245 253 238 251 258 358 17 31 25 183 162 139 136 126 122 121 119 123 129 130 125 121 123 120
213 220 220 226 237 224 215 216 219 227 235 236 235 238 243 247 250 254 249 233 231 240 235 247 271 268 247 237 234 238 234 227 231 237 237 238 241 244 248 248 242 241 243 246 247 238 235 240 252 253 231 222 208 204 210 208 214 204 193 210 218 227 229 223 241 262 282 288 287 313 297 282 268 147 134 129 123 122 123 128 133 134 132 132 128
217 221 221 222 228 224 215 218 227 232 235 235 230 232 240 243 244 249 247 234 234 242 234 237 251 238 222 218 209 206 208 209 218 228 233 234 239 245 250 254 252 250 247 246 250 249 244 240 247 253 250 246 215 201 205 206 217 218 206 208 215 218 222 224 230 255 280 277 271 285 311 309 309 316 299 140 142 137 135 135 137 140 143 143 135
210 211 216 224 229 228 229 227 228 232 237 239 236 235 238 240 240 241 239 230 224 217 203 197 211 205 190 191 191 188 191 193 200 214 227 231 234 241 248 252 253 253 253 252 254 257 258 253 249 252 252 253 242 214 209 207 213 226 219 212 216 218 222 228 226 234 258 263 259 275 301 299 300 307 295 263 211 167 152 149 148 150 155 156 149
200 211 224 235 229 219 229 237 233 233 235 239 243 241 237 236 235 235 233 225 211 191 184 184 192 194 181 175 177 177 184 194 204 213 227 235 235 238 245 249 251 251 253 253 254 258 264 264 257 254 253 249 245 239 233 220 217 229 231 224 221 214 217 225 224 228 237 243 246 255 295 298 288 286 277 275 261 222 189 174 164 161 165 167 167
181 212 225 232 218 207 219 229 230 231 230 233 240 244 240 232 229 229 225 211 192 181 185 189 190 188 179 167 164 166 170 181 200 209 219 231 237 241 245 248 249 249 251 252 254 256 260 264 261 257 257 254 248 245 238 222 217 225 228 235 238 206 208 218 223 228 229 233 241 241 263 300 294 276 264 263 260 250 230 199 181 171 172 175 180
103 121 151 172 182 193 211 222 227 228 231 236 241 245 243 237 231 226 220 193 175 175 171 170 170 167 166 161 155 156 154 155 161 164 180 205 224 235 242 247 247 246 248 251 254 257 258 259 260 259 260 261 258 252 247 233 219 219 223 235 245 221 211 219 231 237 223 223 231 238 243 253 277 274 256 251 251 248 239 228 218 198 181 179 187
100 103 114 141 169 182 201 216 221 224 232 239 245 246 240 238 232 222 215 186 173 174 166 164 160 150 151 157 154 163 170 176 185 182 189 194 195 209 224 238 245 249 253 256 259 263 268 270 272 272 270 271 271 266 259 253 239 229 224 229 242 239 227 223 230 241 236 224 221 229 238 236 240 254 246 242 245 243 237 231 231 223 206 190 190
116 107 106 128 158 178 196 211 220 227 230 228 236 237 228 234 231 221 212 194 185 177 170 171 166 156 150 135 122 166 196 210 219 224 225 219 215 208 211 222 235 256 270 273 273 268 265 272 280 283 284 282 280 276 271 267 263 257 247 241 248 252 246 237 230 234 248 243 224 223 233 236 236 241 243 244 243 243 242 235 231 234 234 224 207
123 118 114 129 146 171 190 205 223 229 216 199 213 219 209 211 222 229 214 192 194 187 182 191 184 163 140 110 102 98 228 232 213 213 213 209 217 220 223 233 240 261 289 302 303 287 260 263 274 278 284 283 279 281 280 275 272 269 266 260 259 263 264 264 258 250 248 250 240 230 232 236 237 239 240 242 244 242 245 243 239 242 243 244 239
129 126 124 129 132 142 167 189 199 190 180 191 208 218 216 210 221 233 216 188 194 174 182 203 198 177 135 73 49 80 284 249 192 200 204 203 214 219 220 230 234 257 302 274 285 305 281 270 279 274 278 283 281 286 289 285 283 282 281 278 272 270 272 275 276 266 253 246 245 239 235 237 237 238 237 238 245 245 247 250 249 251 252 251 250
150 143 136 136 133 130 127 135 136 126 137 176 194 205 220 224 238 242 227 218 201 130 154 204 203 191 181 146 114 67 240 190 133 157 189 200 208 209 204 218 240 268 299 259 262 306 292 274 285 279 281 287 282 292 304 299 298 301 298 293 286 280 274 272 272 271 266 257 247 239 237 240 238 239 240 239 246 249 249 250 250 253 255 256 254
153 164 156 153 144 136 122 108 101 103 109 135 176 194 211 220 241 249 240 246 216 150 158 184 185 181 186 183 182 188 175 149 132 143 102 141 186 176 176 283 294 291 301 281 271 303 298 285 296 289 280 276 275 294 310 307 304 310 313 309 302 291 278 273 277 277 272 266 260 249 241 242 243 244 243 243 248 250 251 251 251 254 256 258 256
136 166 172 165 149 140 132 118 105 103 102 97 103 131 179 201 220 238 238 243 233 174 164 168 162 150 153 171 182 168 155 146 142 148 101 39 28 61 68 57 30 343 309 289 266 283 310 304 300 297 284 276 281 298 305 310 313 312 315 316 310 300 287 283 294 285 267 260 260 257 249 247 249 246 242 244 246 246 249 252 253 253 251 251 248
135 166 177 167 148 146 144 133 120 109 101 95 91 94 113 153 179 198 212 218 229 206 175 175 177 169 148 140 139 139 143 143 140 134 120 98 33 59 71 71 64 57 35 344 278 267 292 295 284 290 301 303 302 301 307 324 330 322 331 336 324 312 303 302 311 303 279 264 258 255 256 255 254 250 245 246 248 248 248 250 251 250 248 248 246
135 159 171 163 152 160 161 150 135 119 106 99 94 97 104 118 141 162 175 182 179 162 160 171 185 197 183 145 123 120 116 113 115 114 114 123 134 94 79 74 67 65 69 72 75 76 70 47 359 334 329 321 312 314 329 344 352 3 12 5 354 346 337 325 323 328 325 305 279 264 259 254 253 255 253 253 256 257 254 252 253 251 250 250 248
135 145 152 153 151 162 169 166 155 138 125 111 101 102 104 108 114 122 127 124 116 111 117 134 157 179 183 175 144 111 94 81 87 99 103 96 102 115 91 84 76 69 71 74 77 78 78 78 74 67 61 53 46 55 55 39 26 25 13 4 4 7 3 352 355 11 7 346 335 299 267 257 254 254 257 261 264 266 264 261 258 253 252 254 253
141 142 143 144 149 163 176 176 164 145 131 116 105 107 109 109 108 107 109 103 97 97 98 111 130 133 147 168 160 127 122 112 82 88 91 91 103 107 93 98 96 83 73 71 73 77 78 78 77 76 75 75 79 80 76 73 71 64 54 38 31 32 30 28 38 49 49 48 46 37 328 272 263 257 262 268 269 267 266 266 262 255 254 257 257
151 147 144 142 145 172 182 176 165 153 138 123 115 115 116 115 109 102 103 99 94 90 86 91 104 111 113 122 125 118 116 113 101 93 96 108 116 114 109 108 98 93 87 74 70 71 73 74 73 73 73 74 76 79 79 78 75 71 69 65 59 53 47 40 45 51 52 57 60 58 54 39 325 285 286 284 274 269 267 266 264 260 261 261 259
162 156 148 142 129 132 148 152 153 155 146 132 124 122 124 124 117 110 108 105 99 92 90 91 95 101 104 103 102 98 92 91 95 99 106 118 123 124 127 126 113 103 95 80 72 67 66 67 68 67 67 68 69 72 73 74 72 69 70 71 67 62 56 48 45 44 43 50 56 53 49 45 35 14 4 346 292 282 279 274 270 271 277 276 271
169 170 162 152 134 120 123 123 126 132 131 133 135 136 139 136 130 125 120 115 108 100 98 99 100 103 106 105 101 95 92 91 92 98 105 117 133 147 137 105 103 100 81 73 74 69 60 58 59 60 58 57 58 60 61 61 61 60 61 65 61 53 46 39 34 32 32 35 38 37 31 24 17 6 4 5 343 320 312 305 296 293 294 288 277
175 180 179 171 153 133 124 111 107 113 122 133 139 146 153 148 141 134 125 121 117 108 104 103 105 105 104 104 102 98 95 94 92 91 94 96 114 146 152 126 94 81 75 69 65 64 60 55 52 50 48 48 47 48 49 49 48 45 43 46 43 35 28 23 20 18 18 20 22 18 9 2 354 339 330 324 315 307 301 297 293 288 284 281 277
187 191 192 195 190 184 182 100 83 85 99 120 131 143 153 148 140 131 124 123 116 108 105 103 102 102 101 103 104 103 98 95 94 90 89 89 89 110 146 155 134 98 68 64 58 55 56 55 51 45 42 44 45 46 47 47 45 40 41 44 41 36 26 17 11 4 359 360 2 360 354 352 350 342 333 322 312 304 297 291 286 282 279 275 274
207 206 205 212 224 243 257 277 328 29 60 83 109 128 139 140 139 129 122 123 116 105 101 98 97 99 102 103 102 102 100 96 94 91 89 87 85 87 94 114 142 150 111 54 59 56 51 51 50 43 39 42 44 44 46 48 46 41 44 47 45 42 32 23 21 16 10 7 5 4 360 358 4 6 4 357 349 336 324 316 304 295 290 282 276
232 224 217 218 230 253 257 264 288 312 350 18 66 108 120 126 134 132 129 131 122 110 103 97 98 101 103 104 104 104 103 99 95 94 93 89 84 83 80 81 99 121 124 115 102 74 61 53 49 41 36 39 41 43 45 47 45 42 43 46 47 45 37 32 33 32 31 28 23 21 18 16 17 17 15 10 7 0 352 348 340 328 319 308 296
241 234 227 225 228 247 253 255 264 268 297 330 350 84 112 112 123 129 133 140 129 115 110 100 99 107 109 109 110 108 104 99 96 93 93 91 86 83 81 79 80 88 105 119 119 80 74 60 48 41 35 34 36 41 44 43 40 37 37 40 41 37 32 31 31 29 30 30 28 26 24 23 21 18 17 11 4 358 349 343 340 337 335 331 325
243 239 232 232 230 241 251 257 261 260 268 291 304 293 285 56 113 125 132 144 137 121 117 108 103 109 114 115 116 114 109 103 98 95 94 93 90 85 81 79 78 76 85 99 108 108 87 63 45 41 36 32 31 34 37 38 37 33 28 28 26 21 19 21 19 16 17 17 18 17 15 17 17 15 15 11 7 2 353 346 338 330 331 332 331
238 239 235 237 237 241 248 258 263 265 267 274 282 284 285 297 305 131 137 154 159 144 136 129 121 116 114 117 120 119 119 114 105 101 102 99 94 88 81 76 78 74 73 89 105 119 101 66 42 39 36 31 30 29 28 28 29 28 24 21 18 14 10 7 3 359 357 356 355 356 356 358 359 1 3 2 0 359 354 351 346 335 328 326 326
235 239 240 242 244 246 252 264 267 267 270 272 275 276 279 282 284 286 262 226 227 206 181 171 162 149 130 121 119 120 125 130 123 114 111 108 99 90 81 69 68 66 62 78 100 112 105 75 44 39 36 30 29 28 25 22 23 23 22 21 21 19 15 9 3 353 346 340 336 334 333 332 333 335 337 339 340 340 339 338 337 334 327 320 317
237 240 243 245 248 251 253 260 263 261 263 268 273 276 277 278 278 280 276 266 261 252 236 225 211 197 184 162 143 133 130 140 142 137 131 125 112 96 86 69 58 57 52 56 75 89 92 78 44 36 35 29 26 26 23 20 19 18 18 19 20 20 17 13 9 3 354 344 335 330 327 325 325 324 322 323 322 321 321 320 319 318 315 311 306
244 243 245 248 250 251 251 257 261 259 258 261 269 276 279 279 274 272 274 272 268 265 259 249 236 228 226 221 210 195 175 165 160 157 155 145 127 104 89 71 55 53 46 40 49 63 74 73 52 37 33 28 24 20 16 14 14 14 14 13 11 11 10 8 8 5 1 357 350 343 341 339 337 332 327 323 319 316 313 311 309 306 304 301 297
252 251 253 256 257 257 257 262 265 268 271 269 269 276 283 284 278 270 268 270 269 267 264 261 254 248 249 249 241 234 224 210 190 178 176 167 150 128 103 84 63 49 39 36 42 50 59 67 61 40 26 22 20 15 11 8 5 5 5 4 4 3 0 0 3 2 1 1 359 353 350 349 346 342 338 331 326 320 316 311 308 304 300 297 293
254 249 251 255 260 262 264 273 281 284 286 283 277 278 284 285 281 274 266 266 268 267 264 264 262 259 259 258 254 251 247 238 227 215 208 201 190 169 130 115 94 59 41 43 46 45 50 58 57 38 23 16 13 11 9 6 3 1 359 357 357 357 354 353 355 358 359 356 353 349 344 342 341 340 338 336 333 328 323 317 312 309 304 299 295
245 241 242 245 252 258 263 275 283 280 279 279 276 273 271 273 275 273 269 268 270 270 267 265 264 261 261 261 259 258 257 253 249 244 236 226 220 215 205 188 169 86 52 54 51 44 44 46 37 24 18 13 8 5 3 2 1 359 358 356 351 350 350 349 349 352 354 349 345 341 337 336 336 337 337 336 337 334 330 326 321 317 313 306 300
245 246 247 251 258 262 263 267 269 268 269 271 271 269 267 268 272 274 272 271 274 275 272 270 267 264 261 261 262 261 260 259 259 257 252 245 235 224 222 230 241 272 14 38 33 25 25 28 22 12 6 3 1 358 357 358 358 357 357 354 347 344 344 343 345 348 346 341 338 334 333 335 335 336 336 336 338 336 333 332 330 326 322 315 307
242 240 248 262 266 263 263 264 263 265 267 268 268 270 271 272 274 274 273 275 279 279 276 274 271 268 265 263 265 266 263 260 261 259 256 255 251 243 241 241 241 257 320 359 359 359 354 356 2 357 351 350 351 352 352 355 356 351 348 347 344 341 339 338 341 346 341 335 333 330 331 335 335 335 336 338 339 339 336 334 334 332 329 322 315
242 239 242 255 260 259 260 260 257 260 264 266 266 268 272 276 278 276 276 281 283 281 280 279 274 273 272 267 266 268 266 261 259 257 255 253 250 250 256 253 246 262 304 334 343 343 334 335 342 342 340 340 342 344 344 345 345 341 341 343 340 338 338 338 338 337 335 334 332 329 330 334 336 335 336 339 340 340 338 334 333 332 329 325 321
251 253 249 252 257 261 265 262 256 256 261 266 266 266 271 275 276 276 276 281 284 283 282 282 280 280 279 274 270 268 267 264 259 255 251 247 241 242 248 246 244 265 282 277 299 319 313 313 319 325 327 328 331 334 333 333 334 334 336 337 336 336 338 338 331 326 328 332 333 329 327 332 338 336 335 339 340 341 340 335 331 328 321 318 318
245 251 250 249 250 251 255 257 252 249 255 265 268 267 268 267 269 273 276 279 282 282 281 282 283 284 283 281 277 272 269 266 261 255 247 237 233 234 234 231 234 249 257 254 266 293 293 291 298 306 311 316 323 325 326 327 327 328 328 329 330 331 330 327 316 313 323 332 334 329 325 330 338 337 334 339 343 343 341 335 329 324 318 314 311
195 193 189 186 180 181 188 192 207 250 293 310 302 284 275 269 268 272 278 280 278 277 277 279 281 282 282 281 281 278 275 269 262 256 244 229 222 221 218 220 228 235 237 245 272 290 285 278 281 291 298 306 314 318 320 321 321 321 322 322 324 324 322 320 314 313 323 333 336 329 323 325 335 336 334 338 342 339 336 332 327 323 317 312 307
155 147 142 138 130 121 104 84 65 39 19 2 346 325 306 294 283 278 278 277 274 273 273 274 277 278 279 279 279 279 279 273 265 255 239 222 214 210 210 216 220 219 224 244 269 278 272 265 268 277 288 296 303 309 311 311 311 314 315 316 318 318 317 315 312 314 320 327 334 330 317 319 331 335 331 333 334 333 332 329 325 320 311 304 306
137 134 131 126 116 103 83 65 47 23 7 353 341 332 322 314 304 293 284 275 268 264 264 268 274 277 280 280 278 277 276 274 269 255 234 218 211 209 210 212 212 218 234 250 260 264 262 259 266 277 288 297 302 305 306 306 307 309 309 311 313 313 312 310 309 312 316 320 330 328 304 309 328 331 326 329 331 329 329 328 326 320 304 296 307
140 136 132 126 113 102 84 62 43 20 3 349 338 329 321 316 310 306 297 279 266 261 261 267 275 280 284 283 279 278 276 272 266 249 228 216 211 209 208 206 212 227 242 247 252 259 263 267 276 289 299 305 308 307 307 308 309 310 309 309 311 312 311 310 310 313 315 318 325 321 296 302 326 327 321 324 326 324 324 328 330 321 300 293 314
152 148 139 124 113 105 81 51 30 17 8 357 342 332 326 318 310 306 299 281 266 262 264 272 280 287 291 290 288 283 274 266 255 233 217 212 209 206 205 208 218 232 236 243 256 267 275 281 291 301 306 308 307 307 309 311 311 310 306 305 310 311 308 308 307 307 310 313 319 319 299 300 320 323 318 319 320 317 319 326 334 330 310 299 308
164 158 146 126 122 105 40 16 7 4 3 359 349 338 332 329 324 314 299 280 266 262 266 276 286 293 296 298 303 295 272 257 239 217 206 206 206 206 211 219 226 230 235 251 272 280 287 294 301 306 307 306 304 304 307 307 305 305 301 301 306 305 299 296 294 297 304 308 315 321 307 304 317 322 318 317 314 309 312 322 330 320 307 301 304
174 173 194 256 259 275 325 340 350 356 357 356 352 345 338 335 332 322 306 287 272 268 273 281 288 294 296 296 301 289 252 227 210 199 196 201 208 211 221 227 225 234 253 270 281 286 291 296 301 303 303 302 301 301 301 301 300 300 298 299 302 300 295 292 291 296 302 302 310 317 310 306 312 317 317 318 314 308 309 309 304 304 303 304 307